EN

Hourly Weather Ladorudz

Today, 30 July, Friday

Time Temperature Precipitation Wind Pressure Humidity
00:00 +20°C° 0 mm 2 mps 749 mmHg 61%
01:00 +20°C° 0 mm 2 mps 749 mmHg 62%
02:00 +19°C° 0 mm 2 mps 749 mmHg 65%
03:00 +18°C° 0 mm 2 mps 748 mmHg 67%
04:00 +17°C° 0 mm 2 mps 748 mmHg 69%
05:00 +18°C° 0 mm 3 mps 748 mmHg 68%
06:00 +19°C° 0 mm 3 mps 748 mmHg 66%
07:00 +20°C° 0 mm 4 mps 749 mmHg 64%
08:00 +21°C° 0 mm 4 mps 748 mmHg 58%
09:00 +22°C° 0 mm 5 mps 748 mmHg 52%
10:00 +24°C° 0 mm 6 mps 748 mmHg 46%
11:00 +26°C° 0 mm 6 mps 748 mmHg 44%
12:00 +26°C° 0 mm 6 mps 748 mmHg 43%
13:00 +27°C° 0 mm 6 mps 747 mmHg 41%
14:00 +27°C° 0 mm 6 mps 747 mmHg 42%
15:00 +27°C° 0 mm 5 mps 747 mmHg 43%
16:00 +27°C° 0 mm 5 mps 746 mmHg 44%
17:00 +26°C° 0 mm 4 mps 746 mmHg 49%
18:00 +25°C° 0 mm 3 mps 746 mmHg 54%
19:00 +24°C° 0 mm 3 mps 746 mmHg 59%
20:00 +23°C° 0 mm 2 mps 746 mmHg 60%
21:00 +21°C° 0 mm 2 mps 747 mmHg 60%
22:00 +20°C° 0 mm 2 mps 747 mmHg 61%
23:00 +20°C° 0 mm 1 mps 747 mmHg 62%

Tomorrow, 31 July, Saturday

Time Temperature Precipitation Wind Pressure Humidity
00:00 +20°C° 0 mm 1 mps 747 mmHg 62%
01:00 +17°C° 0 mm 0 mps 747 mmHg 63%
02:00 +19°C° 0 mm 1 mps 747 mmHg 64%
03:00 +19°C° 0 mm 1 mps 746 mmHg 65%
04:00 +18°C° 0 mm 2 mps 746 mmHg 66%
05:00 +19°C° 0 mm 2 mps 746 mmHg 64%
06:00 +21°C° 0 mm 2 mps 746 mmHg 62%
07:00 +22°C° 0 mm 3 mps 746 mmHg 61%
08:00 +24°C° 0 mm 3 mps 746 mmHg 58%
09:00 +25°C° 0 mm 4 mps 746 mmHg 55%
10:00 +27°C° 0 mm 4 mps 746 mmHg 52%
11:00 +26°C° 0 mm 4 mps 746 mmHg 54%
12:00 +26°C° 0 mm 5 mps 746 mmHg 56%
13:00 +26°C° 0 mm 5 mps 746 mmHg 58%
14:00 +27°C° 0 mm 5 mps 746 mmHg 53%
15:00 +27°C° 0 mm 5 mps 746 mmHg 48%
16:00 +28°C° 0 mm 5 mps 745 mmHg 42%
17:00 +27°C° 0 mm 5 mps 745 mmHg 47%
18:00 +25°C° 0 mm 4 mps 745 mmHg 51%
19:00 +22°C° 0 mm 3 mps 745 mmHg 56%
20:00 +21°C° 0 mm 3 mps 746 mmHg 55%
21:00 +20°C° 0 mm 3 mps 746 mmHg 54%
22:00 +19°C° 0 mm 3 mps 746 mmHg 54%
23:00 +19°C° 0 mm 3 mps 746 mmHg 57%

Day after tomorrow, 1 August, Sunday

Time Temperature Precipitation Wind Pressure Humidity
00:00 +18°C° 0 mm 3 mps 746 mmHg 59%
01:00 +17°C° 0 mm 3 mps 747 mmHg 62%
02:00 +17°C° 0 mm 3 mps 747 mmHg 65%
03:00 +16°C° 0 mm 3 mps 747 mmHg 67%
04:00 +16°C° 0 mm 3 mps 747 mmHg 70%
05:00 +17°C° 0 mm 2 mps 747 mmHg 68%
06:00 +18°C° 0 mm 2 mps 747 mmHg 66%
07:00 +19°C° 0 mm 2 mps 747 mmHg 64%
08:00 +20°C° 0 mm 2 mps 747 mmHg 63%
09:00 +20°C° 0 mm 2 mps 747 mmHg 62%
10:00 +21°C° 0 mm 3 mps 747 mmHg 62%
11:00 +19°C° 1.1 mm 3 mps 747 mmHg 71%
12:00 +18°C° 1.1 mm 3 mps 747 mmHg 80%
13:00 +17°C° 1.1 mm 3 mps 748 mmHg 90%
14:00 +18°C° 0.7 mm 2 mps 747 mmHg 83%
15:00 +18°C° 0.7 mm 2 mps 747 mmHg 77%
16:00 +19°C° 0.7 mm 2 mps 747 mmHg 71%
17:00 +19°C° 0 mm 2 mps 747 mmHg 72%
18:00 +19°C° 0 mm 2 mps 747 mmHg 73%
19:00 +19°C° 0 mm 2 mps 747 mmHg 74%
20:00 +18°C° 0 mm 2 mps 747 mmHg 78%
21:00 +17°C° 0 mm 2 mps 747 mmHg 81%
22:00 +16°C° 0 mm 2 mps 747 mmHg 84%
23:00 +16°C° 0 mm 2 mps 747 mmHg 82%

2 August, Monday

Time Temperature Precipitation Wind Pressure Humidity
00:00 +16°C° 0 mm 2 mps 747 mmHg 81%
01:00 +16°C° 0 mm 2 mps 747 mmHg 80%
02:00 +16°C° 0 mm 2 mps 747 mmHg 81%
03:00 +16°C° 0 mm 2 mps 747 mmHg 81%
04:00 +14°C° 0 mm 3 mps 747 mmHg 82%
05:00 +16°C° 0 mm 3 mps 747 mmHg 79%
06:00 +17°C° 0 mm 3 mps 747 mmHg 76%
07:00 +18°C° 0 mm 3 mps 747 mmHg 72%
08:00 +20°C° 0.1 mm 4 mps 747 mmHg 67%
09:00 +21°C° 0.1 mm 4 mps 747 mmHg 62%
10:00 +22°C° 0.1 mm 4 mps 748 mmHg 57%
11:00 +22°C° 0.5 mm 5 mps 748 mmHg 60%
12:00 +22°C° 0.5 mm 5 mps 748 mmHg 63%
13:00 +21°C° 0.5 mm 5 mps 748 mmHg 66%
14:00 +21°C° 0.4 mm 5 mps 748 mmHg 64%
15:00 +22°C° 0.4 mm 5 mps 748 mmHg 63%
16:00 +22°C° 0.4 mm 5 mps 748 mmHg 62%
17:00 +21°C° 0.1 mm 5 mps 749 mmHg 62%
18:00 +20°C° 0.1 mm 4 mps 749 mmHg 62%
19:00 +19°C° 0.1 mm 4 mps 749 mmHg 62%
20:00 +18°C° 0 mm 4 mps 750 mmHg 63%
21:00 +17°C° 0 mm 3 mps 750 mmHg 64%
22:00 +16°C° 0 mm 3 mps 750 mmHg 65%
23:00 +14°C° 0 mm 3 mps 751 mmHg 67%

3 August, Tuesday

Time Temperature Precipitation Wind Pressure Humidity
00:00 +14°C° 0 mm 3 mps 751 mmHg 69%
01:00 +13°C° 0 mm 3 mps 751 mmHg 71%
02:00 +13°C° 0 mm 3 mps 751 mmHg 71%
03:00 +13°C° 0 mm 3 mps 751 mmHg 71%
04:00 +12°C° 0 mm 3 mps 751 mmHg 71%
05:00 +14°C° 0 mm 3 mps 751 mmHg 69%
06:00 +16°C° 0 mm 3 mps 752 mmHg 66%
07:00 +18°C° 0 mm 4 mps 752 mmHg 63%
08:00 +19°C° 0 mm 4 mps 752 mmHg 59%
09:00 +21°C° 0 mm 4 mps 752 mmHg 54%
10:00 +22°C° 0 mm 4 mps 752 mmHg 50%
11:00 +23°C° 0 mm 4 mps 752 mmHg 48%
12:00 +23°C° 0 mm 4 mps 752 mmHg 46%
13:00 +25°C° 0 mm 3 mps 751 mmHg 44%
14:00 +25°C° 0 mm 3 mps 751 mmHg 46%
15:00 +24°C° 0 mm 2 mps 751 mmHg 49%
16:00 +24°C° 0 mm 2 mps 751 mmHg 51%
17:00 +23°C° 0.2 mm 2 mps 751 mmHg 59%
18:00 +20°C° 0.2 mm 2 mps 751 mmHg 66%
19:00 +19°C° 0.2 mm 2 mps 750 mmHg 74%
20:00 +18°C° 0.7 mm 2 mps 751 mmHg 79%
21:00 +18°C° 0.7 mm 1 mps 751 mmHg 84%
22:00 +18°C° 0.7 mm 1 mps 751 mmHg 90%
23:00 +18°C° 0.9 mm 1 mps 751 mmHg 91%

4 August, Wednesday

Time Temperature Precipitation Wind Pressure Humidity
00:00 +16°C° 0.9 mm 2 mps 751 mmHg 92%
01:00 +16°C° 0.9 mm 2 mps 751 mmHg 93%
02:00 +16°C° 0.1 mm 2 mps 751 mmHg 94%
03:00 +16°C° 0.1 mm 1 mps 751 mmHg 94%
04:00 +15°C° 0.1 mm 1 mps 751 mmHg 94%
05:00 +16°C° 0 mm 1 mps 751 mmHg 91%
06:00 +18°C° 0 mm 1 mps 751 mmHg 87%
07:00 +19°C° 0 mm 1 mps 751 mmHg 84%
08:00 +20°C° 0.1 mm 1 mps 751 mmHg 78%
09:00 +20°C° 0.1 mm 2 mps 751 mmHg 71%
10:00 +23°C° 0.1 mm 2 mps 751 mmHg 65%
11:00 +23°C° 0.3 mm 2 mps 750 mmHg 61%
12:00 +24°C° 0.3 mm 2 mps 750 mmHg 57%
13:00 +24°C° 0.3 mm 2 mps 750 mmHg 54%
14:00 +24°C° 0.1 mm 3 mps 750 mmHg 56%
15:00 +22°C° 0.1 mm 3 mps 750 mmHg 58%
16:00 +22°C° 0.1 mm 3 mps 750 mmHg 61%
17:00 +21°C° 0 mm 3 mps 750 mmHg 63%
18:00 +21°C° 0 mm 2 mps 750 mmHg 66%
19:00 +20°C° 0 mm 2 mps 750 mmHg 69%
20:00 +19°C° 0 mm 2 mps 750 mmHg 72%
21:00 +18°C° 0 mm 3 mps 750 mmHg 76%
22:00 +17°C° 0 mm 3 mps 750 mmHg 80%
23:00 +17°C° 0 mm 3 mps 750 mmHg 84%
Show more